Weather History for Capo Carbonara, Italy

Change the Weather History Date:

Monday, September 23, 2013

  Actual Average Record
Temperature  
Mean Temperature 74 °F -  
Max Temperature 82 °F - - ()
Min Temperature 67 °F - - ()
Cooling Degree Days 10    
Growing Degree Days 24 (Base 50)    
Moisture  
Dew Point 66 °F    
Average Humidity 74    
Maximum Humidity 83    
Minimum Humidity 58    
Precipitation  
Precipitation 0.00 in - - ()
Sea Level Pressure  
Sea Level Pressure 30.13 in    
Wind  
Wind Speed 6 mph ()    
Max Wind Speed 12 mph    
Max Gust Speed -    
Visibility 7.9 miles    
Events      
T = Trace of Precipitation, MM = Missing Value Source: Averaged Metar Reports

Daily Weather History Graph

Daily Weather History Graph

Search for Another Location

Airport:

Trip Planner

Search our weather history database for the weather conditions in past years. The results will help you decide how hot, cold, wet, or windy it might be!

Date:

Astronomy

Sep. 23, 2013 Rise Set
Actual Time 7:10 AM CEST 7:17 PM CEST
Civil Twilight 6:43 AM CEST 7:44 PM CEST
Nautical Twilight 6:12 AM CEST 8:15 PM CEST
Astronomical Twilight 5:40 AM CEST 8:46 PM CEST
Moon 9:39 PM CEST (9/23) 11:11 AM CEST (9/23)
Length of Visible Light 13h 00m
Length of Day
12h 06m
Waning Gibbous, 83% of the Moon is Illuminated
Sep 23
Waning Gibbous
Sep 27
Last Quarter
Oct 5
New
Oct 12
First Quarter
Oct 19
Full

Hourly Weather History & Observations

Time (CEST) Temp. Heat Index Dew Point Humidity Pressure Visibility Wind Dir Wind Speed Gust Speed Precip Events Conditions
12:55 AM 71.6 °F - 62.6 °F 73% 30.15 in - Calm Calm - N/A   Clear
1:55 AM 69.8 °F - 62.6 °F 78% 30.15 in - North 8.1 mph - N/A   Clear
2:00 AM 70 °F - 62 °F 70% 30.16 in 12 mi North 8.1 mph - -  
2:55 AM 69.8 °F - 62.6 °F 78% 30.15 in - NNE 9.2 mph - N/A   Clear
3:55 AM 68.0 °F - 60.8 °F 78% 30.15 in - NNE 9.2 mph - N/A   Clear
4:55 AM 68.0 °F - 60.8 °F 78% 30.15 in - NNE 10.4 mph - N/A   Clear
5:00 AM 69 °F - 62 °F 71% 30.15 in 12 mi NNE 10.4 mph - -  
5:55 AM 68.0 °F - 60.8 °F 78% 30.12 in 6.2 mi North 9.2 mph - N/A   Partly Cloudy
6:55 AM 68.0 °F - 60.8 °F 78% 30.12 in 6.2 mi NNE 11.5 mph - N/A   Partly Cloudy
7:55 AM 69.8 °F - 60.8 °F 73% 30.15 in 6.2 mi North 9.2 mph - N/A   Partly Cloudy
8:00 AM 70 °F - 62 °F 67% 30.15 in 12 mi North 9.2 mph - -   Scattered Clouds
8:55 AM 69.8 °F - 62.6 °F 78% 30.15 in 6.2 mi NNE 6.9 mph - N/A   Partly Cloudy
9:55 AM 71.6 °F - 62.6 °F 73% 30.15 in 6.2 mi ENE 5.8 mph - N/A   Partly Cloudy
10:55 AM 75.2 °F - 66.2 °F 73% 30.15 in 6.2 mi ENE 5.8 mph - N/A   Partly Cloudy
11:00 AM 75 °F - 67 °F 69% 30.15 in 12 mi ENE 5.8 mph - -   Scattered Clouds
11:55 AM 77.0 °F - 68.0 °F 74% 30.15 in 6.2 mi ENE 6.9 mph - N/A   Partly Cloudy
12:55 PM 80.6 °F 83.2 °F 68.0 °F 65% 30.15 in 6.2 mi North 3.5 mph - N/A   Partly Cloudy
1:55 PM 80.6 °F 83.2 °F 68.0 °F 65% 30.15 in 6.2 mi ESE 3.5 mph - N/A   Partly Cloudy
2:00 PM 81 °F - 69 °F 58% 30.14 in 12 mi ESE 3.5 mph - -   Scattered Clouds
2:55 PM 82.4 °F 87.2 °F 71.6 °F 70% 30.12 in 6.2 mi South 5.8 mph - N/A   Partly Cloudy
3:55 PM 82.4 °F 87.2 °F 71.6 °F 70% 30.12 in 6.2 mi South 5.8 mph - N/A   Partly Cloudy
4:55 PM 82.4 °F 87.2 °F 71.6 °F 70% 30.12 in 6.2 mi SSW 5.8 mph - N/A   Partly Cloudy
5:00 PM 82 °F - 72 °F 65% 30.11 in 12 mi SSW 5.8 mph - -   Scattered Clouds
5:55 PM 80.6 °F 84.6 °F 71.6 °F 74% 30.09 in 6.2 mi SSW 6.9 mph - N/A   Partly Cloudy
6:55 PM 77.0 °F - 69.8 °F 78% 30.09 in 6.2 mi SW 6.9 mph - N/A   Partly Cloudy
7:55 PM 73.4 °F - 68.0 °F 83% 30.09 in 6.2 mi WSW 5.8 mph - N/A   Partly Cloudy
8:00 PM 74 °F - 67 °F 74% 30.09 in 12 mi WSW 5.8 mph - -   Scattered Clouds
8:55 PM 71.6 °F - 66.2 °F 83% 30.09 in 6.2 mi SW 5.8 mph - N/A   Partly Cloudy
9:55 PM 71.6 °F - 66.2 °F 83% 30.09 in 6.2 mi North 4.6 mph - N/A   Partly Cloudy
10:55 PM 71.6 °F - 64.4 °F 78% 30.09 in 6.2 mi NW 3.5 mph - N/A   Partly Cloudy
11:00 PM 72 °F - 65 °F 73% 30.10 in 12 mi NW 3.5 mph - -   Scattered Clouds
11:55 PM 71.6 °F - 64.4 °F 78% 30.09 in 6.2 mi NNW 2.3 mph - N/A   Partly Cloudy